| time (UTC) | temp F | wind direction | speed MPH | gust MPH | rain 1hr in | rain 24hr in | rain mn in | humidity % | barometer mb |
| 20260901234552 | 86 | 173 | 8.0 | 14.0 | 0.00 | 0.00 | 0.00 | 24 | 1003.8 |
| 20260901233051 | 86 | 154 | 5.0 | 10.0 | 0.00 | 0.00 | 0.00 | 24 | 1003.8 |
| 20260901231550 | 85 | 137 | 5.0 | 9.0 | 0.00 | 0.00 | 0.00 | 25 | 1004.0 |
| 20260901230050 | 85 | 150 | 7.0 | 15.0 | 0.00 | 0.00 | 0.00 | 22 | 1004.1 |
| 20260901224546 | 86 | 161 | 9.0 | 13.0 | 0.00 | 0.00 | 0.00 | 23 | 1004.4 |
| 20260901223049 | 87 | 177 | 8.0 | 12.0 | 0.00 | 0.00 | 0.00 | 24 | 1004.4 |
| 20260901221543 | 87 | 156 | 4.0 | 12.0 | 0.00 | 0.00 | 0.00 | 23 | 1004.6 |
| 20260901220040 | 86 | 198 | 8.0 | 15.0 | 0.00 | 0.00 | 0.00 | 23 | 1004.8 |
| 20260901214542 | 87 | 158 | 8.0 | 13.0 | 0.00 | 0.00 | 0.00 | 22 | 1005.0 |
| 20260901213101 | 86 | 190 | 6.0 | 10.0 | 0.00 | 0.00 | 0.00 | 23 | 1005.3 |
| 20260901211536 | 86 | 156 | 7.0 | 15.0 | 0.00 | 0.00 | 0.00 | 24 | 1005.4 |
| 20260901210034 | 86 | 136 | 7.0 | 15.0 | 0.00 | 0.00 | 0.00 | 25 | 1005.6 |
| 20260901204538 | 87 | 189 | 7.0 | 14.0 | 0.00 | 0.00 | 0.00 | 23 | 1005.6 |
| 20260901203034 | 85 | 159 | 5.0 | 15.0 | 0.00 | 0.00 | 0.00 | 27 | 1005.7 |
| 20260901201530 | 85 | 155 | 5.0 | 14.0 | 0.00 | 0.00 | 0.00 | 25 | 1005.8 |
| 20260901200027 | 86 | 196 | 5.0 | 16.0 | 0.00 | 0.00 | 0.00 | 27 | 1006.0 |
| 20260901194526 | 86 | 180 | 9.0 | 14.0 | 0.00 | 0.00 | 0.00 | 24 | 1006.1 |
| 20260901193022 | 84 | 157 | 8.0 | 17.0 | 0.00 | 0.00 | 0.00 | 26 | 1006.4 |
| 20260901191520 | 85 | 146 | 7.0 | 15.0 | 0.00 | 0.00 | 0.00 | 28 | 1006.5 |
| 20260901190017 | 84 | 204 | 5.0 | 15.0 | 0.00 | 0.00 | 0.00 | 29 | 1007.0 |
| 20260901184522 | 83 | 166 | 6.0 | 12.0 | 0.00 | 0.00 | 0.00 | 29 | 1007.3 |
| 20260901183012 | 82 | 194 | 4.0 | 12.0 | 0.00 | 0.00 | 0.00 | 31 | 1007.4 |
| 20260901181509 | 82 | 231 | 6.0 | 11.0 | 0.00 | 0.00 | 0.00 | 32 | 1007.6 |
| 20260901180004 | 81 | 185 | 6.0 | 11.0 | 0.00 | 0.00 | 0.00 | 35 | 1007.9 |
| 20260901174503 | 78 | 334 | 2.0 | 6.0 | 0.00 | 0.00 | 0.00 | 41 | 1008.0 |
| 20260901173057 | 77 | 280 | 2.0 | 5.0 | 0.00 | 0.00 | 0.00 | 49 | 1008.2 |
| 20260901171606 | 75 | 271 | 1.0 | 6.0 | 0.00 | 0.00 | 0.00 | 47 | 1008.4 |
| 20260901170059 | 74 | 259 | 2.0 | 4.0 | 0.00 | 0.00 | 0.00 | 48 | 1008.4 |
| 20260901164552 | 72 | 254 | 2.0 | 4.0 | 0.00 | 0.00 | 0.00 | 53 | 1008.5 |
| 20260901163042 | 70 | 252 | 0.0 | 4.0 | 0.00 | 0.00 | 0.00 | 57 | 1008.7 |
| 20260901161541 | 70 | 250 | 0.0 | 0.0 | 0.00 | 0.00 | 0.00 | 56 | 1008.7 |
| 20260901160039 | 70 | 250 | 0.0 | 0.0 | 0.00 | 0.00 | 0.00 | 57 | 1008.9 |
| 20260901154534 | 68 | 249 | 0.0 | 0.0 | 0.00 | 0.00 | 0.00 | 56 | 1009.0 |
| 20260901153031 | 66 | 249 | 1.0 | 5.0 | 0.00 | 0.00 | 0.00 | 58 | 1009.2 |
| 20260901151529 | 66 | 249 | 0.0 | 2.0 | 0.00 | 0.00 | 0.00 | 63 | 1009.3 |
| 20260901150025 | 63 | 249 | 0.0 | 3.0 | 0.00 | 0.00 | 0.00 | 69 | 1009.3 |
| 20260901144554 | 61 | 249 | 0.0 | 0.0 | 0.00 | 0.00 | 0.00 | 72 | 1009.2 |
| 20260901143010 | 60 | 249 | 0.0 | 0.0 | 0.00 | 0.00 | 0.00 | 72 | 1009.2 |
| 20260901141616 | 57 | 249 | 0.0 | 0.0 | 0.00 | 0.00 | 0.00 | 76 | 1009.1 |
| 20260901140003 | 55 | 249 | 0.0 | 0.0 | 0.00 | 0.00 | 0.00 | 80 | 1009.0 |
| 20260901134504 | 52 | 249 | 0.0 | 3.0 | 0.00 | 0.00 | 0.00 | 80 | 1008.9 |
| 20260901133001 | 52 | 249 | 0.0 | 1.0 | 0.00 | 0.00 | 0.00 | 79 | 1008.8 |
| 20260901131559 | 53 | 249 | 1.0 | 5.0 | 0.00 | 0.00 | 0.00 | 75 | 1008.8 |
| 20260901130055 | 56 | 247 | 0.0 | 3.0 | 0.00 | 0.00 | 0.00 | 69 | 1008.9 |
| 20260901124555 | 58 | 242 | 1.0 | 4.0 | 0.00 | 0.00 | 0.00 | 66 | 1008.9 |
| 20260901123051 | 58 | 248 | 3.0 | 7.0 | 0.00 | 0.00 | 0.00 | 66 | 1008.9 |
| 20260901121554 | 56 | 261 | 4.0 | 7.0 | 0.00 | 0.00 | 0.00 | 71 | 1008.9 |
| 20260901120050 | 58 | 247 | 3.0 | 8.0 | 0.00 | 0.00 | 0.00 | 65 | 1008.9 |
| 20260901114558 | 61 | 184 | 4.0 | 11.0 | 0.00 | 0.00 | 0.00 | 59 | 1008.9 |
| 20260901113047 | 60 | 161 | 8.0 | 14.0 | 0.00 | 0.00 | 0.00 | 61 | 1009.0 |
| 20260901111547 | 60 | 178 | 7.0 | 12.0 | 0.00 | 0.00 | 0.00 | 62 | 1009.3 |
| 20260901110044 | 58 | 167 | 10.0 | 16.0 | 0.00 | 0.00 | 0.00 | 70 | 1009.2 |
| 20260901104538 | 54 | 186 | 4.0 | 8.0 | 0.00 | 0.00 | 0.00 | 81 | 1009.4 |
| 20260901103034 | 48 | 225 | 1.0 | 8.0 | 0.00 | 0.00 | 0.00 | 89 | 1009.6 |
| 20260901101533 | 47 | 232 | 3.0 | 5.0 | 0.00 | 0.00 | 0.00 | 90 | 1009.6 |
| 20260901100035 | 46 | 226 | 2.0 | 4.0 | 0.00 | 0.00 | 0.00 | 90 | 1009.6 |
| 20260901094531 | 47 | 225 | 0.0 | 1.0 | 0.00 | 0.00 | 0.00 | 89 | 1009.7 |
| 20260901093030 | 47 | 225 | 0.0 | 4.0 | 0.00 | 0.00 | 0.00 | 90 | 1009.7 |
| 20260901091528 | 47 | 225 | 0.0 | 2.0 | 0.00 | 0.00 | 0.00 | 90 | 1009.5 |
| 20260901090027 | 46 | 225 | 0.0 | 3.0 | 0.00 | 0.00 | 0.00 | 90 | 1009.6 |
| 20260901084524 | 47 | 225 | 1.0 | 2.0 | 0.00 | 0.00 | 0.00 | 89 | 1009.6 |
| 20260901083022 | 47 | 225 | 0.0 | 2.0 | 0.00 | 0.00 | 0.00 | 90 | 1009.6 |
| 20260901081529 | 47 | 225 | 0.0 | 3.0 | 0.00 | 0.00 | 0.00 | 90 | 1009.7 |
| 20260901080023 | 47 | 225 | 0.0 | 3.0 | 0.00 | 0.00 | 0.00 | 89 | 1009.8 |
| 20260901074515 | 47 | 223 | 2.0 | 3.0 | 0.00 | 0.00 | 0.00 | 89 | 1009.8 |
| 20260901073017 | 47 | 221 | 0.0 | 2.0 | 0.00 | 0.00 | 0.00 | 88 | 1010.0 |
| 20260901071512 | 48 | 221 | 0.0 | 2.0 | 0.00 | 0.00 | 0.00 | 88 | 1010.1 |
| 20260901070011 | 47 | 221 | 1.0 | 3.0 | 0.00 | 0.00 | 0.00 | 88 | 1010.0 |
| 20260901064510 | 48 | 221 | 0.0 | 0.0 | 0.00 | 0.00 | 0.00 | 87 | 1010.0 |
| 20260901063006 | 48 | 221 | 0.0 | 0.0 | 0.00 | 0.00 | 0.00 | 86 | 1010.0 |
| 20260901061503 | 49 | 221 | 0.0 | 0.0 | 0.00 | 0.00 | 0.00 | 85 | 1010.1 |
| 20260901060059 | 50 | 221 | 0.0 | 3.0 | 0.00 | 0.00 | 0.00 | 85 | 1010.2 |
| 20260901054558 | 52 | 221 | 0.0 | 6.0 | 0.00 | 0.00 | 0.00 | 87 | 1010.0 |
| 20260901053059 | 51 | 223 | 0.0 | 3.0 | 0.00 | 0.00 | 0.00 | 88 | 1010.2 |
| 20260901051624 | 51 | 223 | 0.0 | 4.0 | 0.00 | 0.00 | 0.00 | 86 | 1010.2 |
| 20260901050040 | 51 | 223 | 0.0 | 1.0 | 0.00 | 0.00 | 0.00 | 85 | 1010.2 |
| 20260901044501 | 51 | 223 | 2.0 | 5.0 | 0.00 | 0.00 | 0.00 | 84 | 1010.2 |
| 20260901043104 | 52 | 223 | 0.0 | 3.0 | 0.00 | 0.00 | 0.00 | 83 | 1010.1 |
| 20260901041523 | 53 | 223 | 0.0 | 3.0 | 0.00 | 0.00 | 0.00 | 80 | 1010.2 |
| 20260901040117 | 55 | 232 | 2.0 | 4.0 | 0.00 | 0.00 | 0.00 | 75 | 1010.2 |
| 20260901034518 | 57 | 236 | 1.0 | 4.0 | 0.00 | 0.00 | 0.00 | 75 | 1010.0 |
| 20260901033057 | 56 | 245 | 1.0 | 4.0 | 0.00 | 0.00 | 0.00 | 77 | 1010.0 |
| 20260901031532 | 56 | 257 | 1.0 | 3.0 | 0.00 | 0.00 | 0.00 | 75 | 1009.8 |
| 20260901030032 | 58 | 257 | 0.0 | 0.0 | 0.00 | 0.00 | 0.00 | 72 | 1009.9 |
| 20260901024530 | 61 | 257 | 0.0 | 0.0 | 0.00 | 0.00 | 0.00 | 69 | 1009.7 |
| 20260901023029 | 64 | 257 | 0.0 | 0.0 | 0.00 | 0.00 | 0.00 | 66 | 1009.6 |
| 20260901021528 | 67 | 257 | 0.0 | 0.0 | 0.00 | 0.00 | 0.00 | 67 | 1009.5 |
| 20260901020028 | 70 | 257 | 0.0 | 0.0 | 0.00 | 0.00 | 0.00 | 55 | 1009.6 |
| 20260901014528 | 72 | 257 | 0.0 | 0.0 | 0.00 | 0.04 | 0.00 | 49 | 1009.7 |
| 20260901013039 | 74 | 257 | 0.0 | 0.0 | 0.00 | 0.04 | 0.00 | 49 | 1009.7 |
| 20260901011535 | 75 | 257 | 0.0 | 2.0 | 0.00 | 0.04 | 0.00 | 42 | 1009.8 |
| 20260901010026 | 75 | 257 | 1.0 | 6.0 | 0.00 | 0.04 | 0.00 | 40 | 1009.9 |
| 20260901004524 | 75 | 263 | 5.0 | 8.0 | 0.00 | 0.04 | 0.00 | 38 | 1009.9 |
| 20260901003025 | 76 | 276 | 3.0 | 8.0 | 0.00 | 0.04 | 0.00 | 37 | 1009.9 |
| 20260901001523 | 77 | 313 | 0.0 | 4.0 | 0.00 | 0.04 | 0.00 | 37 | 1009.9 |
| 20260901000028 | 77 | 315 | 1.0 | 6.0 | 0.00 | 0.04 | 0.00 | 38 | 1010.0 |